Volver al catálogo

CZ-6A DEB

ActivoPO
NORAD 61811·DEBRIS·🇨🇳 China

Lanzado Aug 6, 2024 desde Taiyuan Satellite Launch Center

Loading…

Próximos Pases (próximas 24 horas)

TLE

ActualizadoSource: Space-Track

Época: Sep 14, 2026, 00:07 UTC

1 61811U 24140ACB 26257.00529295  .00001469  00000-0  77898-3 0  9994
2 61811  89.0351 269.7421 0096431 300.3437  58.8238 14.10828317103776

Sigue CZ-6A DEB en tiempo real con AllMySat

Download on the App Store